Time,TemperatureF,DewpointF,PressureIn,WindDirection,WindDirectionDegrees,WindSpeedMPH,WindSpeedGustMPH,Humidity,HourlyPrecipIn,Conditions,Clouds,dailyrainin,SoftwareType,DateUTC
2013-06-13 00:04:00,66.7,51.0,29.92,NNW,340,16.0,0.0,56,0.00,,,-99.99,,2013-06-13 05:04:00,
2013-06-13 00:34:00,65.5,51.0,29.92,NNW,340,16.0,0.0,56,0.00,,,-99.99,,2013-06-13 05:34:00,
2013-06-13 01:04:00,64.6,50.0,29.94,North,350,12.0,0.0,55,0.00,,,-99.99,,2013-06-13 06:04:00,
2013-06-13 01:36:00,63.7,50.0,29.94,North,350,12.0,0.0,55,0.00,,,-99.99,,2013-06-13 06:36:00,
2013-06-13 02:04:00,62.5,48.0,29.96,NNW,340,11.0,0.0,52,0.00,,,-99.99,,2013-06-13 07:04:00,
2013-06-13 02:34:00,61.4,48.0,29.96,NNW,340,11.0,0.0,52,0.00,,,-99.99,,2013-06-13 07:34:00,
2013-06-13 03:04:00,60.5,48.0,29.97,NNW,340,12.0,0.0,55,0.00,,,-99.99,,2013-06-13 08:04:00,
2013-06-13 03:34:00,59.6,48.0,29.97,NNW,340,12.0,0.0,55,0.00,,,-99.99,,2013-06-13 08:34:00,
2013-06-13 04:04:00,58.2,48.0,30.00,NNW,340,6.0,0.0,59,0.00,,,-99.99,,2013-06-13 09:04:00,
2013-06-13 04:34:00,57.7,48.0,30.00,NNW,340,6.0,0.0,59,0.00,,,-99.99,,2013-06-13 09:34:00,
2013-06-13 05:04:00,57.2,50.0,30.01,North,350,8.0,0.0,67,0.00,,,-99.99,,2013-06-13 10:04:00,
2013-06-13 05:35:00,57.5,50.0,30.01,North,350,8.0,0.0,67,0.00,,,-99.99,,2013-06-13 10:35:00,
2013-06-13 06:04:00,57.4,50.0,30.03,NNW,340,8.0,0.0,72,0.00,,,-99.99,,2013-06-13 11:04:00,
2013-06-13 06:34:00,58.5,50.0,30.03,NNW,340,8.0,0.0,72,0.00,,,-99.99,,2013-06-13 11:34:00,
2013-06-13 07:04:00,64.1,51.0,30.05,NNW,340,8.0,0.0,72,0.00,,,-99.99,,2013-06-13 12:04:00,
2013-06-13 07:35:00,67.6,51.0,30.05,NNW,340,8.0,0.0,72,0.00,,,-99.99,,2013-06-13 12:35:00,
2013-06-13 08:06:00,67.6,51.0,30.06,North,10,6.0,0.0,63,0.00,,,-99.99,,2013-06-13 13:06:00,
2013-06-13 08:36:00,69.8,51.0,30.06,North,10,6.0,0.0,63,0.00,,,-99.99,,2013-06-13 13:36:00,
2013-06-13 09:04:00,70.1,53.0,30.07,NNW,340,8.0,0.0,63,0.00,,,-99.99,,2013-06-13 14:04:00,
2013-06-13 09:34:00,66.2,53.0,30.07,NNW,340,8.0,0.0,63,0.00,,,-99.99,,2013-06-13 14:34:00,
2013-06-13 10:04:00,67.3,53.0,30.08,NNE,30,8.0,0.0,56,0.00,,,-99.99,,2013-06-13 15:04:00,
2013-06-13 10:34:00,69.1,53.0,30.08,NNE,30,8.0,0.0,56,0.00,,,-99.99,,2013-06-13 15:34:00,
2013-06-13 11:04:00,70.0,53.0,30.09,North,10,8.0,0.0,53,0.00,,,-99.99,,2013-06-13 16:04:00,
2013-06-13 11:34:00,71.4,53.0,30.09,North,10,8.0,0.0,53,0.00,,,-99.99,,2013-06-13 16:34:00,
2013-06-13 12:04:00,73.2,51.0,30.10,North,5,5.0,0.0,46,0.00,,,-99.99,,2013-06-13 17:04:00,
2013-06-13 12:34:00,72.3,51.0,30.10,North,5,5.0,0.0,46,0.00,,,-99.99,,2013-06-13 17:34:00,
2013-06-13 13:04:00,72.9,51.0,30.09,NNE,30,9.0,0.0,44,0.00,,,-99.99,,2013-06-13 18:04:00,
2013-06-13 13:34:00,74.1,51.0,30.09,NNE,30,9.0,0.0,44,0.00,,,-99.99,,2013-06-13 18:34:00,
2013-06-13 14:04:00,75.7,53.0,30.09,North,350,9.0,0.0,47,0.00,,,-99.99,,2013-06-13 19:04:00,
2013-06-13 14:34:00,74.3,53.0,30.09,North,350,9.0,0.0,47,0.00,,,-99.99,,2013-06-13 19:34:00,
2013-06-13 15:04:00,75.3,53.0,30.08,NNE,30,11.0,17.0,47,0.00,,,-99.99,,2013-06-13 20:04:00,
2013-06-13 15:34:00,75.7,53.0,30.08,NNE,30,11.0,17.0,47,0.00,,,-99.99,,2013-06-13 20:34:00,
2013-06-13 16:04:00,76.0,53.0,30.07,NNE,20,12.0,17.0,41,0.00,,,-99.99,,2013-06-13 21:04:00,
2013-06-13 16:34:00,76.8,53.0,30.07,NNE,20,12.0,17.0,41,0.00,,,-99.99,,2013-06-13 21:34:00,
2013-06-13 17:04:00,81.2,55.0,30.06,NE,40,11.0,19.0,44,0.00,,,-99.99,,2013-06-13 22:04:00,
2013-06-13 17:34:00,81.2,55.0,30.06,NE,40,11.0,19.0,44,0.00,,,-99.99,,2013-06-13 22:34:00,
2013-06-13 18:04:00,81.6,53.0,30.06,North,10,8.0,19.0,41,0.00,,,-99.99,,2013-06-13 23:04:00,
2013-06-13 18:34:00,77.1,53.0,30.06,North,10,8.0,19.0,41,0.00,,,-99.99,,2013-06-13 23:34:00,
2013-06-13 19:04:00,82.2,53.0,30.06,East,100,6.0,0.0,47,0.00,,,-99.99,,2013-06-14 00:04:00,
2013-06-13 19:34:00,78.5,53.0,30.06,East,100,6.0,0.0,47,0.00,,,-99.99,,2013-06-14 00:34:00,
2013-06-13 20:04:00,78.8,51.0,30.07,East,80,6.0,0.0,44,0.00,,,-99.99,,2013-06-14 01:04:00,
2013-06-13 20:34:00,73.8,51.0,30.07,East,80,6.0,0.0,44,0.00,,,-99.99,,2013-06-14 01:34:00,
2013-06-13 21:04:00,72.5,53.0,30.07,ESE,110,6.0,0.0,49,0.00,,,-99.99,,2013-06-14 02:04:00,
2013-06-13 21:34:00,71.6,53.0,30.07,ESE,110,6.0,0.0,49,0.00,,,-99.99,,2013-06-14 02:34:00,
2013-06-13 22:04:00,70.8,53.0,30.07,North,0,0.0,0.0,49,0.00,,,-99.99,,2013-06-14 03:04:00,
2013-06-13 22:34:00,69.6,53.0,30.07,North,0,0.0,0.0,49,0.00,,,-99.99,,2013-06-14 03:34:00,
2013-06-13 23:04:00,68.3,53.0,30.08,ENE,60,6.0,0.0,56,0.00,,,-99.99,,2013-06-14 04:04:00,
2013-06-13 23:34:00,66.9,53.0,30.08,ENE,60,6.0,0.0,56,0.00,,,-99.99,,2013-06-14 04:34:00,